Weather Service Report


090 
ASUS46 KSTO 281809
RWRCA 

NORTHERN AND CENTRAL CA REGIONAL WEATHER ROUNDUP
NATIONAL WEATHER SERVICE SACRAMENTO CA 
1100 AM PDT THU AUG 28 2014

NOTE: FAIR INDICATES FEW OR NO CLOUDS BELOW 12,000 FEET WITH NO
SIGNIFICANT WEATHER AND/OR OBSTRUCTIONS TO VISIBILITY.

CAZ001-003-281900-
NORTHWEST AREA
  
CITY           SKY/WX    TMP DP  RH WIND       PRES   REMARKS
CRESCENT CITY  FOG       58  57  97 NW5       30.09F VSB 3/4          
ARCATA         NOT AVBL                                               
SHELTER COVE   NOT AVBL                                               
UKIAH          SUNNY     80  51  36 CALM      30.05F                  
$$

CAZ006-505>513-281900-
BAY AREA
  
CITY           SKY/WX    TMP DP  RH WIND       PRES   REMARKS
SANTA ROSA     MOSUNNY   65  55  70 CALM      30.05F                  
SAN RAFAEL     N/A       65  MM  MM MISG
NAPA           MOSUNNY   65  57  75 VRB6      30.07S                  
CONCORD        SUNNY     71  57  61 NW12      30.05S                  
OAKLAND CITY   N/A       61  MM  MM MISG
OAKLAND        CLOUDY    63  57  81 CALM      30.08S                  
SAN FRAN CITY  N/A       62  MM  83 MISG
SAN FRAN ARPT  MOSUNNY   66  59  78 NW9       30.07F                  
LIVERMORE      SUNNY     73  56  54 VRB3      30.05F                  
HAYWARD        PTSUNNY   66  60  81 W6        30.07F                  
REDWOOD CITY   N/A       MM  MM  MM MISG
MOFFETT ARPT   SUNNY     67  57  70 NE6       30.08S                  
SAN JOSE ARPT  MOSUNNY   67  57  70 CALM      30.06F                  
$$
CAZ034-037-514>518-281900-
CENTRAL COAST
  
CITY           SKY/WX    TMP DP  RH WIND       PRES   REMARKS
WATSONVILLE    SUNNY     72  58  61 VRB7      30.06F                  
SALINAS        SUNNY     67  56  67 CALM      30.05F                  
MONTEREY       SUNNY     65  55  70 N5        30.07F                  
PT PIEDRAS BLS NOT AVBL                                               
SAN LUIS OBISP SUNNY     72  56  57 W6        30.05S                  
SANTA MARIA    MOSUNNY   69  58  67 W8        30.06S                  
$$
CAZ015-016-281900-
NORTHERN SACRAMENTO VALLEY
  
CITY           SKY/WX    TMP DP  RH WIND       PRES   REMARKS
REDDING        SUNNY     86  53  32 VRB5      30.02F                  
RED BLUFF      SUNNY     88  52  29 CALM      30.03F                  
OROVILLE       SUNNY     81  56  42 W7        30.04S                  
$$
CAZ016>018-281900-
SOUTHERN SACRAMENTO VALLEY
  
CITY           SKY/WX    TMP DP  RH WIND       PRES   REMARKS
AUBURN         SUNNY     88  48  25 SW5       30.07S                  
BEALE AFB      SUNNY     83  54  37 VRB2      30.01F                  
LINCOLN        FAIR      82  50  32 W8        30.01S                  
MARYSVILLE     SUNNY     82  53  36 CALM      30.02F                  
SAC INTL ARPT  SUNNY     74  55  51 CALM      30.01F                  
MATHER AIRPORT SUNNY     77  55  47 W7        30.02F                  
DOWNTOWN SAC   N/A       78  MM  MM MISG
SAC EXEC ARPT  SUNNY     77  57  50 S3        30.02F                  
VACAVILLE      SUNNY     79  54  41 VRB3      30.04S                  
TRAVIS AFB     SUNNY     74  57  56 SW15      30.02S                  
$$
CAZ019>021-281900-
SAN JOAQUIN VALLEY
  
CITY           SKY/WX    TMP DP  RH WIND       PRES   REMARKS
STOCKTON       SUNNY     79  55  43 MISG      30.02F                  
MODESTO        SUNNY     82  52  35 NW8       30.01S                  
MERCED         SUNNY     87  50  27 N3        30.00F                  
LEMOORE        SUNNY     85  50  29 NW7       30.00F                  
FRESNO         SUNNY     91  38  15 VRB5      30.01S                  
HANFORD        SUNNY     83  55  38 E3        30.00F                  
PORTERVILLE    SUNNY     88  48  25 W6        30.02F                  
BAKERSFIELD    SUNNY     89  45  21 NW9       30.00F                  
$$
CAZ011-012-071-281900-
NORTHERN MOUNTAINS
  
CITY           SKY/WX    TMP DP  RH WIND       PRES   REMARKS
YREKA          CLOUDY    78  46  32 NW3       30.14S HAZE             
MOUNT SHASTA   PTSUNNY   78  51  38 CALM      30.18F                  
ALTURAS        SUNNY     80  43  26 CALM      30.22F                  
$$
CAZ011-012-071-281900-
SIERRA NEVADA MTNS
  
CITY           SKY/WX    TMP DP  RH WIND       PRES   REMARKS
BLUE CANYON    SUNNY     74  39  28 W6        30.30F                  
TRUCKEE        SUNNY     72  43  35 CALM      30.32F                  
TAHOE VLY ARPT SUNNY     74  47  38 NE9       30.33F                  
MAMMOTH LAKES  FAIR      75  27  16 SE5       30.40S                  
$$
  

Return to Home page


Western Regional Climate Center, wrcc@dri.edu